Regional Weather Roundup
Issued by NWS

Home | Current Version | Previous Version | Text Only | Print | Product List | Glossary Off
Versions: 1 2 3 4 5 6 7 8 9 10 11 12 13 14 15 16 17 18 19 20 21 22 23 24 25 26 27 28 29 30 31 32 33 34 35 36 37 38 39 40 41 42 43 44 45 46 47 48 49 50

000
ASUS43 KFSD 060202
RWRSD

WEATHER ROUNDUP FOR SOUTH DAKOTA
NATIONAL WEATHER SERVICE SIOUX FALLS SD
900 PM CDT THU MAY 05 2016

NOTE: "FAIR" INDICATES FEW OR NO CLOUDS BELOW 12,000 FEET WITH NO
SIGNIFICANT WEATHER AND/OR OBSTRUCTIONS TO VISIBILITY.


SDZ001>005-009-010-012>017-060300-
NORTHWEST AND NORTH CENTRAL SOUTH DAKOTA

CITY           SKY/WX    TMP DP  RH WIND       PRES   REMARKS
BUFFALO          N/A     75  49  39 S12       29.78S
FAITH            N/A     77  49  37 E3        29.83S
MOBRIDGE       CLEAR     72  32  23 SE7       29.78R
$$

SDZ012>016-024>037-041>051-057-063-072>074-060300-
SOUTHWEST AND SOUTH CENTRAL SOUTH DAKOTA

CITY           SKY/WX    TMP DP  RH WIND       PRES   REMARKS
RAPID CTY ARPT PTCLDY    67  46  47 E10       29.85S
PIERRE         CLEAR     71  52  50 E12       29.79S
CUSTER         CLOUDY    68  32  26 CALM      30.01S
ELLSWORTH AFB  CLEAR     71  51  49 E9        29.85S
PHILIP         CLOUDY    70  53  54 N7        29.80S
PINE RIDGE     CLOUDY    71  42  35 S8        29.88R
WINNER         LGT RAIN  75  48  38 S16       29.84S
$$

SDZ004>011-016>023-039-040-060300-
NORTHEAST SOUTH DAKOTA

CITY           SKY/WX    TMP DP  RH WIND       PRES   REMARKS
ABERDEEN       CLEAR     72  41  32 S10       29.82S
WATERTOWN      CLEAR     66  43  43 S6        29.89S
BROOKINGS      CLEAR     68  46  45 S9        29.91S
SISSETON         N/A     70  44  39 SW10      29.83R
$$

SDZ017-020-022-023-036>040-048>070-060300-
SOUTHEAST SOUTH DAKOTA

CITY           SKY/WX    TMP DP  RH WIND       PRES   REMARKS
SIOUX FALLS    PTCLDY    65  46  50 S8        29.92S
HURON          CLEAR     73  45  36 S10       29.85S
MITCHELL       CLEAR     69  49  48 S9        29.88S
YANKTON        CLEAR     72  41  33 S8        29.91S
$$

ABBREVIATIONS USED IN REMARKS
   TC - TEMPERATURE IN CELSIUS
  WCI - WIND CHILL INDEX
   HX - HEAT INDEX
  VSB - VISIBILITY





USA.gov is the U.S. government's official web portal to all federal, state and local government web resources and services.